SAUDISAT 4

Last updated on July 6, 2021, 3:44 p.m. UTC

1 40016U 14033G   21186.81639907  .00000058  00000-0  15546-4 0  9991
2 40016  97.6662  35.3129 0048144 183.5083 176.5797 14.75362291379282
UTC
Height (km)
Latitude
Longitude
Inclination
Orbital Period
UTC large
Height (km)
Speed (km/s)
/
Latitude / Longitude
Inclination (degrees)
Orbital Period (minutes)
Azimuth
Elevation
Range (km)
Doppler Factor
iOS Compass Heading
iOS Angle